Location: Brunsen
(51.8651°N, 9.8610°E)
Time: 16:34:23
(UTC+00:00)

FENGYUN 3A - Pass Details

Date: 23 May 2024
Orbit: 821 x 835 km, 98.6° (Epoch: 23 June)

Event Time Altitude Azimuth Distance (km) Brightness Sun altitude
Rises 02:13:35 0° 13° (NNE) 3,375 8.1 -7.9°
Reaches altitude 10° 02:15:57 10° 12° (NNE) 2,436 7.2 -7.7°
Maximum altitude 02:21:19 73° 289° (WNW) 864 3.7 -7.1°
Drops below altitude 10° 02:26:39 10° 206° (SSW) 2,415 5.5 -6.6°
Enters shadow 02:27:30 - 205° (SSW) 2,752 5.8 -6.5°
